Regional Weather Roundup
Issued by NWS Charleston, WV

Home | Current Version | Previous Version | Graphics & Text | Print | Product List | Glossary On
Versions: 1 2 3 4 5 6 7 8 9 10 11 12 13 14 15 16 17 18 19 20 21 22 23 24 25 26 27 28 29 30 31 32 33 34 35 36 37 38 39 40 41 42 43 44 45 46 47 48 49 50
185
ASUS41 KRLX 261610
RWRRLX
West Virginia Regional Weather Roundup
National Weather Service Charleston WV
1200 PM EDT TUE JUL 26 2016

Note: "fair" indicates few or no clouds below 12,000 feet with no
significant weather and/or obstructions to visibility.

WVZ003-261700-
Northern Panhandle of West Virginia

CITY           SKY/WX    TMP DP  RH WIND       PRES   REMARKS
WHEELING         N/A     85  63  47 NE5       30.06S
$$

WVZ009-261700-
Northwest West Virginia

CITY           SKY/WX    TMP DP  RH WIND       PRES   REMARKS
PARKERSBURG      N/A     82  73  74 CALM      30.07S
$$

WVZ006-261700-
Western West Virginia

CITY           SKY/WX    TMP DP  RH WIND       PRES   REMARKS
HUNTINGTON       N/A     86  75  69 S6        30.05S
$$

WVZ015-261700-
West Central West Virginia

CITY           SKY/WX    TMP DP  RH WIND       PRES   REMARKS
CHARLESTON       N/A     87  73  62 SW6       30.06S
$$

WVZ022-031-261700-
North Central West Virginia

CITY           SKY/WX    TMP DP  RH WIND       PRES   REMARKS
CLARKSBURG     PTSUNNY   80  71  74 SW3       30.06S
MORGANTOWN     PTSUNNY   80  70  71 SW3       30.08R
$$

WVZ025-035-042-045-261700-
Southern West Virginia

CITY           SKY/WX    TMP DP  RH WIND       PRES   REMARKS
BECKLEY        PTSUNNY   81  69  67 CALM      30.15S
LOGAN          PTSUNNY   82  73  74 S5        30.09F
BLUEFIELD        N/A     80  68  66 NW9       30.18S
LEWISBURG      PTSUNNY   81  69  68 SW3       30.13S
$$

WVZ047-261700-
Northern Mountains of West Virginia

CITY           SKY/WX    TMP DP  RH WIND       PRES   REMARKS
ELKINS           N/A     81  69  67 VRB3      30.11S
$$

WVZ052-261700-
Eastern Panhandle of West Virginia

CITY           SKY/WX    TMP DP  RH WIND       PRES   REMARKS
MARTINSBURG      N/A     88  67  49 W8        29.99F
PETERSBURG     CLOUDY    88  71  57 N3        30.03S
$$




USA.gov is the U.S. government's official web portal to all federal, state and local government web resources and services.